Location: Drocourt
(49.0571°N, 1.7669°E)
Time: 21:01:14
(UTC+00:00)

Transit 4A - Visible Passes

Search period start: 12 April 2024 00:00
Search period end: 22 April 2024 00:00
Orbit: 871 x 972 km, 66.8° (Epoch: 12 April)

Date Brightness Start Highest point End Pass type
(mag) Time Alt. Az. Time Alt. Az. Time Alt. Az.
12 Apr 9.8 00:31:19 10° WNW 00:33:01 17° WNW 00:33:01 17° WNW visible
12 Apr 10.0 19:20:38 10° NNW 19:23:38 14° N 19:26:37 10° NE visible
12 Apr 9.3 21:07:10 10° NNW 21:12:05 27° NE 21:14:50 19° ENE visible
12 Apr 7.9 22:53:16 10° NW 22:58:19 68° NW 22:58:19 68° NW visible
13 Apr 10.1 00:41:10 10° WNW 00:41:48 12° WNW 00:41:48 12° WNW visible
13 Apr 10.0 19:29:56 10° NNW 19:33:15 15° NNE 19:36:33 10° NE visible
13 Apr 8.9 21:16:09 10° NNW 21:21:26 34° NE 21:23:37 26° ENE visible
13 Apr 8.2 23:02:23 10° NW 23:07:06 52° WNW 23:07:06 52° WNW visible
14 Apr 9.8 19:39:05 10° NNW 19:42:49 17° NNE 19:46:32 10° ENE visible
14 Apr 8.5 21:25:09 10° NNW 21:30:43 44° NE 21:32:26 35° E visible
14 Apr 8.7 23:11:36 10° NW 23:15:55 38° W 23:15:55 38° W visible
15 Apr 9.6 19:48:09 10° NNW 19:52:20 20° NNE 19:56:30 10° ENE visible
15 Apr 8.0 21:34:09 10° NNW 21:39:56 58° NE 21:41:16 47° E visible
15 Apr 9.1 23:20:57 10° NW 23:24:45 28° W 23:24:45 28° W visible
16 Apr 9.4 19:57:09 10° NNW 20:01:47 24° NNE 20:06:25 10° E visible
16 Apr 7.7 21:43:12 10° NW 21:49:03 79° NE 21:50:08 60° ESE visible
16 Apr 9.5 23:30:31 10° WNW 23:33:37 20° W 23:33:37 20° W visible
17 Apr 9.1 20:06:09 10° NNW 20:11:12 29° NE 20:15:31 13° E visible
17 Apr 7.7 21:52:16 10° NW 21:58:07 77° WSW 21:59:01 63° S visible
17 Apr 9.9 23:40:32 10° WNW 23:42:31 14° W 23:42:31 14° W visible
18 Apr 8.7 20:15:08 10° NNW 20:20:31 36° NE 20:24:27 17° E visible
18 Apr 8.0 22:01:25 10° NW 22:07:06 55° WSW 22:07:56 50° SSW visible
19 Apr 8.3 20:24:08 10° NNW 20:29:46 48° NE 20:33:24 21° ESE visible
19 Apr 8.5 22:10:40 10° NW 22:16:01 38° WSW 22:16:53 36° SW visible
20 Apr 7.9 20:33:09 10° NNW 20:38:57 64° NE 20:42:22 25° SE visible
20 Apr 9.1 22:20:04 10° NW 22:24:51 27° WSW 22:25:53 26° SW visible
21 Apr 7.7 20:42:11 10° NW 20:48:04 86° ENE 20:51:24 27° SE visible
21 Apr 9.6 22:29:44 10° WNW 22:33:38 19° WSW 22:34:54 18° WSW visible
